User: anonymous   Login
Location: Castiglione Fibocchi
(43.5333°N, 11.7667°E)
Time: 07:23:33
(UTC+00:00)
Language:

Cosmos 1943 - Orbit

View from above orbital plane
View from above orbital plane
View from above satellite
View from above satellite

Ground track
Ground track

The orbit data is extracted from the following two-line orbital elements,

1 19119U 88039A   20295.06866176 +.00000051 +00000-0 +50686-4 0  9992
2 19119 071.0037 055.6427 0011780 348.3109 184.6987 14.15156669674683
Epoch (UTC): 21 October 2020 01:38:52
Eccentricity: 0.0011780
inclination: 71.0037°
perigee height: 833 km
apogee height: 850 km
right ascension of ascending node: 55.6427°
argument of perigee: 348.3109°
revolutions per day: 14.15156669
mean anomaly at epoch: 184.6987°
orbit number at epoch: 67468

The dashed part of the orbit path shows where the satellite is in the earth's shadow,  

DLR